Location: Recife
(8.0585°S, 34.8848°W)
Time: 12:00:44
(UTC-03:00)

Injun/Solrad 3 - Pass Details

Date: 22 April 2026
Orbit: 868 x 988 km, 66.8° (Epoch: 12 May)

Event Time Altitude Azimuth Distance (km) Brightness Sun altitude
Rises 05:44:19 0° 9° (N) 3,677 11.3 4.6°
Reaches altitude 10° 05:47:32 10° 24° (NNE) 2,731 11.0 5.4°
Maximum altitude 05:52:14 22° 72° (ENE) 2,011 11.6 6.5°
Drops below altitude 10° 05:56:54 10° 120° (ESE) 2,711 11.2 7.7°
Sets 06:00:03 0° 134° (SE) 3,644 11.5 8.4°
